Wetterdaten: Donnerstag, 15.01.2004
Datum Zeit Temp. A Sch. Temp. A Son. Feuchte A. Luftdruck Regen Wind Richtung Richtung Sonnenschein Helligkeit Taupunkt Windchill
15.01.2004 00:00 2,7 C 2,8 C 85 % 993 hPa 0,0 l/m 3,9 m/s (1 Bft) W-SW22.5 245 0,00 min 0 lux 0,4 C -3,1 C
15.01.2004 00:05 2,7 C 2,8 C 85 % 993 hPa 0,0 l/m 3,2 m/s (1 Bft) W-SW45 250 0,00 min 0 lux 0,4 C -1,5 C
15.01.2004 00:10 2,9 C 2,8 C 85 % 993 hPa 0,0 l/m 5,6 m/s (1 Bft) W-SW45 250 0,00 min 0 lux 0,6 C -6,0 C
15.01.2004 00:15 2,8 C 2,8 C 85 % 993 hPa 0,0 l/m 4,5 m/s (1 Bft) W45 260 0,00 min 0 lux 0,5 C -4,2 C
15.01.2004 00:20 2,8 C 2,8 C 85 % 993 hPa 0,0 l/m 4,4 m/s (1 Bft) W-SW22.5 250 0,00 min 0 lux 0,5 C -4,0 C
15.01.2004 00:25 2,8 C 2,8 C 85 % 993 hPa 0,0 l/m 3,6 m/s (1 Bft) W-SW22.5 250 0,00 min 0 lux 0,5 C -2,3 C
15.01.2004 00:30 2,7 C 2,8 C 85 % 993 hPa 0,0 l/m 4,0 m/s (1 Bft) W-SW22.5 245 0,00 min 0 lux 0,4 C -3,4 C
15.01.2004 00:35 2,7 C 2,8 C 86 % 993 hPa 0,0 l/m 4,1 m/s (1 Bft) W-SW22.5 250 0,00 min 0 lux 0,6 C -3,7 C
15.01.2004 00:40 2,7 C 2,8 C 86 % 993 hPa 0,0 l/m 2,9 m/s (1 Bft) W-SW22.5 245 0,00 min 0 lux 0,6 C -0,8 C
15.01.2004 00:45 2,7 C 2,8 C 86 % 993 hPa 0,0 l/m 3,0 m/s (1 Bft) W-SW22.5 240 0,00 min 0 lux 0,6 C -1,1 C
15.01.2004 00:50 2,7 C 2,8 C 86 % 993 hPa 0,0 l/m 2,9 m/s (1 Bft) W-SW22.5 245 0,00 min 0 lux 0,6 C -0,9 C
15.01.2004 00:55 2,8 C 2,8 C 86 % 993 hPa 0,0 l/m 3,3 m/s (1 Bft) W45 260 0,00 min 0 lux 0,7 C -1,8 C
15.01.2004 01:00 2,8 C 2,8 C 86 % 993 hPa 0,0 l/m 3,1 m/s (1 Bft) W-SW22.5 250 0,00 min 0 lux 0,7 C -1,2 C
15.01.2004 01:05 2,8 C 2,8 C 85 % 993 hPa 0,0 l/m 2,2 m/s (1 Bft) W45 265 0,00 min 0 lux 0,5 C 1,4 C
15.01.2004 01:10 2,8 C 2,8 C 85 % 993 hPa 0,4 l/m 1,6 m/s (1 Bft) W-SW22.5 255 0,00 min 0 lux 0,5 C 2,8 C
15.01.2004 01:15 2,7 C 2,9 C 85 % 993 hPa 0,4 l/m 4,1 m/s (1 Bft) W-SW22.5 250 0,00 min 0 lux 0,4 C -3,5 C
15.01.2004 01:20 2,7 C 2,9 C 85 % 993 hPa 0,0 l/m 5,3 m/s (1 Bft) W-SW45 250 0,00 min 0 lux 0,4 C -5,7 C
15.01.2004 01:25 2,7 C 2,9 C 85 % 993 hPa 0,0 l/m 2,2 m/s (1 Bft) W-SW22.5 240 0,00 min 0 lux 0,4 C 1,4 C
15.01.2004 01:30 2,7 C 2,9 C 85 % 993 hPa 0,0 l/m 1,9 m/s (1 Bft) W-SW22.5 245 0,00 min 0 lux 0,4 C 2,3 C
15.01.2004 01:35 2,7 C 2,9 C 85 % 993 hPa 0,0 l/m 1,0 m/s (0 Bft) SW22.5 230 0,00 min 0 lux 0,4 C 2,7 C
15.01.2004 01:40 2,8 C 2,9 C 85 % 993 hPa 0,0 l/m 2,3 m/s (1 Bft) W-SW22.5 240 0,00 min 0 lux 0,5 C 1,0 C
15.01.2004 01:45 2,8 C 2,9 C 85 % 993 hPa 0,0 l/m 2,1 m/s (1 Bft) W-SW45 250 0,00 min 0 lux 0,5 C 1,8 C
15.01.2004 01:50 2,8 C 2,9 C 86 % 993 hPa 0,0 l/m 1,7 m/s (1 Bft) W-SW 255 0,00 min 0 lux 0,7 C 2,8 C
15.01.2004 01:55 2,8 C 3,0 C 86 % 993 hPa 0,0 l/m 2,8 m/s (1 Bft) W-SW22.5 250 0,00 min 0 lux 0,7 C -0,4 C
15.01.2004 02:00 2,9 C 3,0 C 85 % 993 hPa 0,0 l/m 2,3 m/s (1 Bft) W-SW22.5 250 0,00 min 0 lux 0,6 C 1,0 C
15.01.2004 02:05 2,8 C 3,0 C 85 % 993 hPa 0,0 l/m 2,4 m/s (1 Bft) W-SW22.5 240 0,00 min 0 lux 0,5 C 0,6 C
15.01.2004 02:10 2,8 C 3,0 C 86 % 993 hPa 0,4 l/m 3,1 m/s (1 Bft) W-SW45 250 0,00 min 0 lux 0,7 C -1,2 C
15.01.2004 02:15 2,8 C 3,0 C 86 % 993 hPa 0,0 l/m 2,8 m/s (1 Bft) W-SW22.5 245 0,00 min 0 lux 0,7 C -0,3 C
15.01.2004 02:20 2,8 C 3,0 C 86 % 993 hPa 0,0 l/m 2,5 m/s (1 Bft) W-SW22.5 250 0,00 min 0 lux 0,7 C 0,5 C
15.01.2004 02:25 2,8 C 3,0 C 86 % 993 hPa 0,0 l/m 2,9 m/s (1 Bft) W-SW22.5 240 0,00 min 0 lux 0,7 C -0,6 C
15.01.2004 02:30 2,8 C 3,0 C 86 % 994 hPa 0,0 l/m 2,7 m/s (1 Bft) W-SW22.5 240 0,00 min 0 lux 0,7 C -0,1 C
15.01.2004 02:35 2,7 C 3,0 C 86 % 994 hPa 0,0 l/m 2,7 m/s (1 Bft) W-SW22.5 240 0,00 min 0 lux 0,6 C -0,2 C
15.01.2004 02:40 2,7 C 3,0 C 86 % 994 hPa 0,0 l/m 1,7 m/s (1 Bft) W-SW22.5 245 0,00 min 0 lux 0,6 C 2,7 C
15.01.2004 02:45 2,7 C 3,0 C 87 % 994 hPa 0,0 l/m 1,9 m/s (1 Bft) SW 235 0,00 min 0 lux 0,8 C 2,1 C
15.01.2004 02:50 2,6 C 2,9 C 87 % 994 hPa 0,0 l/m 2,1 m/s (1 Bft) SW22.5 235 0,00 min 0 lux 0,7 C 1,5 C
15.01.2004 02:55 2,6 C 2,9 C 87 % 994 hPa 0,0 l/m 2,2 m/s (1 Bft) W-SW22.5 240 0,00 min 0 lux 0,7 C 1,2 C
15.01.2004 03:00 2,6 C 2,9 C 87 % 994 hPa 0,0 l/m 2,4 m/s (1 Bft) W-SW22.5 240 0,00 min 0 lux 0,7 C 0,5 C
15.01.2004 03:05 2,6 C 2,9 C 87 % 994 hPa 0,0 l/m 2,4 m/s (1 Bft) W-SW22.5 240 0,00 min 0 lux 0,7 C 0,5 C
15.01.2004 03:10 2,5 C 2,9 C 87 % 994 hPa 0,0 l/m 1,8 m/s (1 Bft) W-SW22.5 240 0,00 min 0 lux 0,6 C 2,5 C
15.01.2004 03:15 2,5 C 2,8 C 87 % 994 hPa 0,0 l/m 2,5 m/s (1 Bft) W-SW22.5 245 0,00 min 0 lux 0,6 C 0,2 C
15.01.2004 03:20 2,5 C 2,8 C 87 % 994 hPa 0,0 l/m 3,1 m/s (1 Bft) W-SW22.5 255 0,00 min 0 lux 0,6 C -1,5 C
15.01.2004 03:25 2,4 C 2,8 C 86 % 994 hPa 0,0 l/m 5,6 m/s (1 Bft) W-SW22.5 250 0,00 min 0 lux 0,3 C -6,6 C
15.01.2004 03:30 2,4 C 2,8 C 86 % 994 hPa 0,0 l/m 4,1 m/s (1 Bft) W-SW22.5 250 0,00 min 0 lux 0,3 C -3,9 C
15.01.2004 03:35 2,4 C 2,8 C 86 % 994 hPa 0,4 l/m 6,6 m/s (2 Bft) W-SW22.5 250 0,00 min 0 lux 0,3 C -8,0 C
15.01.2004 03:40 2,4 C 2,7 C 85 % 994 hPa 0,0 l/m 7,7 m/s (2 Bft) W-SW22.5 245 0,00 min 0 lux 0,1 C -9,3 C
15.01.2004 03:45 2,3 C 2,7 C 85 % 994 hPa 0,0 l/m 9,1 m/s (2 Bft) W-SW22.5 250 0,00 min 0 lux 0,0 C -10,9 C
15.01.2004 03:50 2,0 C 2,6 C 84 % 995 hPa 0,0 l/m 7,3 m/s (2 Bft) W-SW22.5 255 0,00 min 0 lux -0,4 C -9,4 C
15.01.2004 03:55 2,1 C 2,6 C 84 % 995 hPa 0,0 l/m 7,3 m/s (2 Bft) W-SW45 255 0,00 min 0 lux -0,3 C -9,2 C
15.01.2004 04:00 1,9 C 2,5 C 85 % 995 hPa 0,0 l/m 5,0 m/s (1 Bft) W-SW22.5 250 0,00 min 0 lux -0,3 C -6,2 C
15.01.2004 04:05 1,8 C 2,4 C 85 % 995 hPa 0,0 l/m 5,9 m/s (2 Bft) W45 260 0,00 min 0 lux -0,4 C -7,9 C
15.01.2004 04:10 1,8 C 2,4 C 85 % 995 hPa 0,0 l/m 10,6 m/s (2 Bft) W-SW22.5 245 0,00 min 0 lux -0,4 C -12,9 C
15.01.2004 04:15 1,7 C 2,3 C 85 % 995 hPa 0,0 l/m 6,4 m/s (2 Bft) W-SW22.5 250 0,00 min 0 lux -0,5 C -8,7 C
15.01.2004 04:20 1,7 C 2,2 C 85 % 995 hPa 0,0 l/m 10,3 m/s (2 Bft) W-SW45 245 0,00 min 0 lux -0,5 C -12,8 C
15.01.2004 04:25 1,7 C 2,1 C 84 % 995 hPa 0,0 l/m 5,6 m/s (1 Bft) W-SW45 255 0,00 min 0 lux -0,7 C -7,5 C
15.01.2004 04:30 1,7 C 2,1 C 84 % 995 hPa 0,0 l/m 7,0 m/s (2 Bft) W-SW45 250 0,00 min 0 lux -0,7 C -9,5 C
15.01.2004 04:35 1,7 C 2,1 C 84 % 995 hPa 0,0 l/m 10,7 m/s (2 Bft) W-SW67.5 255 0,00 min 0 lux -0,7 C -13,1 C
15.01.2004 04:40 1,7 C 2,0 C 84 % 995 hPa 0,0 l/m 10,6 m/s (2 Bft) W-SW22.5 250 0,00 min 0 lux -0,7 C -13,1 C
15.01.2004 04:45 1,6 C 1,9 C 84 % 996 hPa 0,0 l/m 8,3 m/s (2 Bft) W-SW22.5 255 0,00 min 0 lux -0,8 C -11,1 C
15.01.2004 04:50 1,5 C 1,9 C 84 % 996 hPa 0,0 l/m 8,9 m/s (2 Bft) W-SW22.5 250 0,00 min 0 lux -0,9 C -11,8 C
15.01.2004 04:55 1,5 C 1,8 C 84 % 996 hPa 0,0 l/m 7,3 m/s (2 Bft) W-SW45 245 0,00 min 0 lux -0,9 C -10,1 C
15.01.2004 05:00 1,5 C 1,8 C 84 % 996 hPa 0,0 l/m 7,9 m/s (2 Bft) W-SW45 250 0,00 min 0 lux -0,9 C -10,9 C
15.01.2004 05:05 1,4 C 1,8 C 84 % 996 hPa 0,0 l/m 6,9 m/s (2 Bft) W45 260 0,00 min 0 lux -1,0 C -9,8 C
15.01.2004 05:10 1,4 C 1,7 C 85 % 996 hPa 0,0 l/m 6,6 m/s (2 Bft) W-SW67.5 250 0,00 min 0 lux -0,8 C -9,3 C
15.01.2004 05:15 1,4 C 1,7 C 85 % 996 hPa 0,0 l/m 8,2 m/s (2 Bft) W45 265 0,00 min 0 lux -0,8 C -11,3 C
15.01.2004 05:20 1,3 C 1,7 C 84 % 997 hPa 0,0 l/m 8,2 m/s (2 Bft) W-SW45 255 0,00 min 0 lux -1,1 C -11,5 C
15.01.2004 05:25 1,3 C 1,6 C 84 % 997 hPa 0,4 l/m 5,6 m/s (1 Bft) W-SW45 255 0,00 min 0 lux -1,1 C -8,0 C
15.01.2004 05:30 1,2 C 1,6 C 84 % 997 hPa 0,0 l/m 9,1 m/s (2 Bft) W22.5 260 0,00 min 0 lux -1,2 C -12,5 C
15.01.2004 05:35 1,3 C 1,6 C 84 % 997 hPa 0,0 l/m 8,9 m/s (2 Bft) W45 265 0,00 min 0 lux -1,1 C -12,1 C
15.01.2004 05:40 1,2 C 1,6 C 84 % 997 hPa 0,0 l/m 7,8 m/s (2 Bft) W-SW22.5 255 0,00 min 0 lux -1,2 C -11,2 C
15.01.2004 05:45 1,2 C 1,5 C 84 % 997 hPa 0,0 l/m 5,9 m/s (2 Bft) W-SW45 250 0,00 min 0 lux -1,2 C -8,6 C
15.01.2004 05:50 1,2 C 1,5 C 84 % 997 hPa 0,0 l/m 6,0 m/s (2 Bft) W-SW45 255 0,00 min 0 lux -1,2 C -8,7 C
15.01.2004 05:55 1,1 C 1,4 C 84 % 997 hPa 0,0 l/m 6,0 m/s (2 Bft) W-SW22.5 250 0,00 min 0 lux -1,3 C -8,9 C
15.01.2004 06:00 1,1 C 1,4 C 84 % 998 hPa 0,0 l/m 8,2 m/s (2 Bft) W-SW22.5 250 0,00 min 0 lux -1,3 C -11,7 C
15.01.2004 06:05 1,1 C 1,4 C 83 % 998 hPa 0,0 l/m 10,1 m/s (2 Bft) W-SW22.5 250 0,00 min 0 lux -1,5 C -13,6 C
15.01.2004 06:10 1,0 C 1,4 C 84 % 998 hPa 0,0 l/m 9,1 m/s (2 Bft) W45 260 0,00 min 0 lux -1,4 C -12,7 C
15.01.2004 06:15 0,7 C 1,3 C 86 % 998 hPa 0,0 l/m 7,6 m/s (2 Bft) W-SW22.5 255 0,00 min 0 lux -1,4 C -11,6 C
15.01.2004 06:20 0,7 C 1,2 C 86 % 998 hPa 0,0 l/m 7,1 m/s (2 Bft) W-SW45 250 0,00 min 0 lux -1,4 C -11,0 C
15.01.2004 06:25 0,6 C 1,2 C 87 % 998 hPa 0,0 l/m 5,4 m/s (1 Bft) W-SW45 250 0,00 min 0 lux -1,3 C -8,5 C
15.01.2004 06:30 0,6 C 1,0 C 88 % 998 hPa 0,0 l/m 5,1 m/s (1 Bft) W45 260 0,00 min 0 lux -1,2 C -8,1 C
15.01.2004 06:35 0,5 C 1,0 C 88 % 998 hPa 0,0 l/m 4,3 m/s (1 Bft) W-SW22.5 250 0,00 min 0 lux -1,3 C -6,7 C
15.01.2004 06:40 0,5 C 0,9 C 88 % 999 hPa 0,0 l/m 3,1 m/s (1 Bft) W-SW45 245 0,00 min 0 lux -1,3 C -3,9 C
15.01.2004 06:45 0,6 C 0,9 C 88 % 999 hPa 0,0 l/m 3,5 m/s (1 Bft) W-SW22.5 250 0,00 min 0 lux -1,2 C -4,7 C
15.01.2004 06:50 0,6 C 0,9 C 88 % 999 hPa 0,0 l/m 4,3 m/s (1 Bft) W-SW22.5 250 0,00 min 0 lux -1,2 C -6,6 C
15.01.2004 06:55 0,7 C 0,9 C 88 % 999 hPa 0,0 l/m 4,4 m/s (1 Bft) W-SW45 255 0,00 min 0 lux -1,1 C -6,5 C
15.01.2004 07:00 0,8 C 1,0 C 88 % 999 hPa 0,0 l/m 5,1 m/s (1 Bft) W45 260 0,00 min 0 lux -1,0 C -7,9 C
15.01.2004 07:05 0,9 C 1,0 C 88 % 999 hPa 0,0 l/m 4,9 m/s (1 Bft) W-SW45 255 0,00 min 0 lux -0,9 C -7,4 C
15.01.2004 07:10 0,8 C 1,0 C 88 % 999 hPa 0,0 l/m 6,8 m/s (2 Bft) W45 260 0,00 min 0 lux -1,0 C -10,5 C
15.01.2004 07:15 0,9 C 1,0 C 88 % 999 hPa 0,0 l/m 3,5 m/s (1 Bft) W45 280 0,00 min 0 lux -0,9 C -4,4 C
15.01.2004 07:20 1,0 C 1,1 C 87 % 1000 hPa 0,0 l/m 4,9 m/s (1 Bft) W-SW22.5 250 0,00 min 0 lux -0,9 C -7,3 C
15.01.2004 07:25 1,0 C 1,1 C 87 % 1000 hPa 0,0 l/m 7,2 m/s (2 Bft) SW67.5 235 0,00 min 0 lux -0,9 C -10,6 C
15.01.2004 07:30 1,4 C 1,2 C 87 % 1000 hPa 0,4 l/m 6,3 m/s (2 Bft) W-SW45 250 0,00 min 0 lux -0,5 C -9,0 C
15.01.2004 07:35 1,4 C 1,3 C 86 % 1000 hPa 0,0 l/m 5,8 m/s (2 Bft) W-SW22.5 250 0,00 min 0 lux -0,7 C -8,3 C
15.01.2004 07:40 1,5 C 1,4 C 86 % 1000 hPa 0,0 l/m 7,8 m/s (2 Bft) W-SW45 255 0,00 min 0 lux -0,6 C -10,7 C
15.01.2004 07:45 1,6 C 1,4 C 86 % 1001 hPa 0,0 l/m 9,0 m/s (2 Bft) W22.5 265 0,00 min 0 lux -0,5 C -11,8 C
15.01.2004 07:50 1,6 C 1,5 C 86 % 1001 hPa 0,0 l/m 6,3 m/s (2 Bft) W45 260 0,00 min 0 lux -0,5 C -8,7 C
15.01.2004 07:55 1,6 C 1,5 C 86 % 1001 hPa 0,4 l/m 3,7 m/s (1 Bft) W22.5 265 0,00 min 0 lux -0,5 C -4,1 C
15.01.2004 08:00 1,7 C 1,6 C 86 % 1001 hPa 0,0 l/m 5,4 m/s (1 Bft) W-SW45 255 0,00 min 0 lux -0,4 C -7,3 C
15.01.2004 08:05 2,0 C 1,6 C 85 % 1001 hPa 0,0 l/m 7,1 m/s (2 Bft) W-SW45 255 0,00 min 0 lux -0,3 C -9,1 C
15.01.2004 08:10 2,0 C 1,7 C 84 % 1001 hPa 0,0 l/m 6,4 m/s (2 Bft) W-SW45 255 0,00 min 0 lux -0,4 C -8,3 C
15.01.2004 08:15 2,0 C 1,8 C 84 % 1001 hPa 0,4 l/m 9,7 m/s (2 Bft) W45 260 0,00 min 75 lux -0,4 C -11,9 C
15.01.2004 08:20 2,1 C 1,9 C 84 % 1001 hPa 0,0 l/m 6,8 m/s (2 Bft) W45 275 0,00 min 144 lux -0,3 C -8,7 C
15.01.2004 08:25 2,1 C 1,9 C 84 % 1001 hPa 0,0 l/m 4,6 m/s (1 Bft) W45 260 0,00 min 169 lux -0,3 C -5,2 C
15.01.2004 08:30 2,1 C 1,9 C 84 % 1001 hPa 0,0 l/m 9,2 m/s (2 Bft) W22.5 265 0,00 min 246 lux -0,3 C -11,3 C
15.01.2004 08:35 2,1 C 2,0 C 83 % 1002 hPa 0,0 l/m 8,1 m/s (2 Bft) W45 270 0,00 min 357 lux -0,5 C -10,2 C
15.01.2004 08:40 2,1 C 2,0 C 83 % 1002 hPa 0,0 l/m 5,7 m/s (1 Bft) W67.5 260 0,00 min 424 lux -0,5 C -7,1 C
15.01.2004 08:45 2,3 C 2,1 C 83 % 1002 hPa 0,0 l/m 9,5 m/s (2 Bft) W45 260 0,00 min 561 lux -0,3 C -11,3 C
15.01.2004 08:50 2,3 C 2,1 C 83 % 1002 hPa 0,0 l/m 8,6 m/s (2 Bft) W-SW45 250 0,00 min 668 lux -0,3 C -10,4 C
15.01.2004 08:55 2,3 C 2,1 C 83 % 1002 hPa 0,4 l/m 6,7 m/s (2 Bft) W-SW45 255 0,00 min 710 lux -0,3 C -8,3 C
15.01.2004 09:00 2,3 C 2,2 C 83 % 1002 hPa 0,0 l/m 6,6 m/s (2 Bft) W-SW67.5 245 0,00 min 1,00 klux -0,3 C -8,2 C
15.01.2004 09:05 2,4 C 2,3 C 83 % 1003 hPa 0,0 l/m 6,2 m/s (2 Bft) W22.5 260 0,00 min 1,36 klux -0,2 C -7,5 C
15.01.2004 09:10 2,4 C 2,3 C 82 % 1003 hPa 0,0 l/m 5,9 m/s (2 Bft) W67.5 275 0,00 min 1,63 klux -0,4 C -7,1 C
15.01.2004 09:15 2,4 C 2,4 C 82 % 1003 hPa 0,0 l/m 6,1 m/s (2 Bft) W-SW22.5 250 0,00 min 1,47 klux -0,4 C -7,4 C
15.01.2004 09:20 2,4 C 2,4 C 82 % 1003 hPa 0,0 l/m 5,8 m/s (2 Bft) W67.5 260 0,00 min 1,46 klux -0,4 C -6,9 C
15.01.2004 09:25 2,5 C 2,4 C 82 % 1003 hPa 0,0 l/m 6,6 m/s (2 Bft) W45 260 0,00 min 2,90 klux -0,3 C -7,8 C
15.01.2004 09:30 2,5 C 2,4 C 81 % 1003 hPa 0,0 l/m 7,4 m/s (2 Bft) W-SW45 250 0,00 min 3,39 klux -0,4 C -8,9 C
15.01.2004 09:35 2,6 C 2,5 C 81 % 1003 hPa 0,0 l/m 7,7 m/s (2 Bft) W45 260 0,00 min 2,00 klux -0,3 C -9,1 C
15.01.2004 09:40 2,5 C 2,5 C 81 % 1004 hPa 0,0 l/m 7,6 m/s (2 Bft) W-SW22.5 250 0,00 min 1,59 klux -0,4 C -9,1 C
15.01.2004 09:45 2,5 C 2,5 C 82 % 1004 hPa 0,0 l/m 6,2 m/s (2 Bft) W-SW45 250 0,00 min 3,00 klux -0,3 C -7,3 C
15.01.2004 09:50 2,5 C 2,5 C 81 % 1004 hPa 0,0 l/m 5,4 m/s (1 Bft) W-SW22.5 255 0,00 min 3,69 klux -0,4 C -6,2 C
15.01.2004 09:55 2,5 C 2,5 C 81 % 1004 hPa 0,0 l/m 4,7 m/s (1 Bft) W-SW45 245 0,00 min 3,97 klux -0,4 C -4,9 C
15.01.2004 10:00 2,4 C 2,5 C 82 % 1004 hPa 0,0 l/m 6,4 m/s (2 Bft) W-SW45 240 0,00 min 6,02 klux -0,4 C -7,8 C
15.01.2004 10:05 2,6 C 2,5 C 80 % 1004 hPa 0,0 l/m 6,1 m/s (2 Bft) W-SW45 250 0,00 min 9,6 klux -0,5 C -7,0 C
15.01.2004 10:10 2,6 C 2,6 C 80 % 1004 hPa 0,0 l/m 6,3 m/s (2 Bft) W-SW22.5 255 0,00 min 9,4 klux -0,5 C -7,4 C
15.01.2004 10:15 2,7 C 2,6 C 79 % 1004 hPa 0,0 l/m 6,4 m/s (2 Bft) W-SW22.5 250 0,00 min 8,45 klux -0,6 C -7,4 C
15.01.2004 10:20 2,7 C 2,6 C 79 % 1004 hPa 0,0 l/m 6,9 m/s (2 Bft) W45 260 0,00 min 7,64 klux -0,6 C -8,0 C
15.01.2004 10:25 2,7 C 2,7 C 79 % 1005 hPa 0,0 l/m 5,4 m/s (1 Bft) W-SW45 240 0,00 min 6,57 klux -0,6 C -6,0 C
15.01.2004 10:30 2,7 C 2,7 C 79 % 1005 hPa 0,0 l/m 7,2 m/s (2 Bft) W-SW45 255 0,00 min 8,92 klux -0,6 C -8,4 C
15.01.2004 10:35 2,8 C 2,8 C 79 % 1005 hPa 0,0 l/m 4,3 m/s (1 Bft) W-SW45 245 0,00 min 12,0 klux -0,5 C -3,9 C
15.01.2004 10:40 2,7 C 2,8 C 78 % 1005 hPa 0,0 l/m 5,9 m/s (2 Bft) W-SW22.5 250 0,00 min 9,2 klux -0,7 C -6,6 C
15.01.2004 10:45 2,7 C 2,9 C 78 % 1005 hPa 0,0 l/m 6,9 m/s (2 Bft) W-SW22.5 245 0,00 min 8,83 klux -0,7 C -8,0 C
15.01.2004 10:50 2,8 C 2,9 C 79 % 1005 hPa 0,0 l/m 2,7 m/s (1 Bft) W45 270 0,00 min 9,9 klux -0,5 C -0,2 C
15.01.2004 10:55 2,9 C 3,0 C 79 % 1005 hPa 0,0 l/m 6,0 m/s (2 Bft) W67.5 270 0,00 min 9,1 klux -0,4 C -6,6 C
15.01.2004 11:00 2,9 C 3,0 C 79 % 1005 hPa 0,0 l/m 7,8 m/s (2 Bft) W-SW22.5 250 0,00 min 9,2 klux -0,4 C -8,8 C
15.01.2004 11:05 2,8 C 3,0 C 79 % 1005 hPa 0,0 l/m 4,0 m/s (1 Bft) W-SW22.5 250 0,00 min 7,01 klux -0,5 C -3,3 C
15.01.2004 11:10 2,7 C 3,0 C 80 % 1005 hPa 0,0 l/m 6,9 m/s (2 Bft) W-SW22.5 255 0,00 min 5,52 klux -0,4 C -8,0 C
15.01.2004 11:15 2,6 C 3,0 C 81 % 1005 hPa 0,0 l/m 5,1 m/s (1 Bft) W-SW22.5 250 0,00 min 12,9 klux -0,3 C -5,6 C
15.01.2004 11:20 2,8 C 3,0 C 81 % 1005 hPa 0,0 l/m 4,8 m/s (1 Bft) W-SW22.5 250 0,00 min 18,2 klux -0,1 C -4,8 C
15.01.2004 11:25 3,1 C 3,2 C 80 % 1006 hPa 0,0 l/m 6,6 m/s (2 Bft) W45 265 0,00 min 19,5 klux -0,0 C -7,1 C
15.01.2004 11:30 3,1 C 3,4 C 80 % 1006 hPa 0,0 l/m 5,8 m/s (2 Bft) W45 270 0,00 min 18,6 klux -0,0 C -6,0 C
15.01.2004 11:35 3,0 C 3,4 C 78 % 1006 hPa 0,0 l/m 8,9 m/s (2 Bft) W-SW22.5 250 0,00 min 21,6 klux -0,5 C -9,7 C
15.01.2004 11:40 3,0 C 3,5 C 78 % 1006 hPa 0,0 l/m 6,3 m/s (2 Bft) W-SW22.5 255 0,00 min 18,3 klux -0,5 C -6,8 C
15.01.2004 11:45 3,1 C 3,6 C 79 % 1006 hPa 0,0 l/m 7,3 m/s (2 Bft) W67.5 270 5,00 min 24,7 klux -0,2 C -7,9 C
15.01.2004 11:50 3,1 C 3,7 C 78 % 1006 hPa 0,0 l/m 7,3 m/s (2 Bft) W-SW22.5 250 0,00 min 23,1 klux -0,4 C -7,9 C
15.01.2004 11:55 3,2 C 3,7 C 78 % 1006 hPa 0,0 l/m 7,4 m/s (2 Bft) W45 260 0,00 min 19,5 klux -0,3 C -7,9 C
15.01.2004 12:00 3,3 C 3,7 C 78 % 1006 hPa 0,0 l/m 8,1 m/s (2 Bft) W67.5 260 0,00 min 19,2 klux -0,2 C -8,5 C
15.01.2004 12:05 3,2 C 3,7 C 77 % 1006 hPa 0,0 l/m 7,4 m/s (2 Bft) W-SW22.5 250 0,00 min 22,0 klux -0,4 C -8,0 C
15.01.2004 12:10 3,3 C 3,7 C 76 % 1006 hPa 0,0 l/m 9,5 m/s (2 Bft) W45 270 5,00 min 25,6 klux -0,5 C -9,8 C
15.01.2004 12:15 3,3 C 3,9 C 76 % 1006 hPa 0,0 l/m 8,0 m/s (2 Bft) W-SW45 255 0,00 min 12,9 klux -0,5 C -8,4 C
15.01.2004 12:20 3,4 C 3,9 C 76 % 1006 hPa 0,0 l/m 6,7 m/s (2 Bft) W67.5 265 0,00 min 13,0 klux -0,4 C -6,8 C
15.01.2004 12:25 3,3 C 3,8 C 76 % 1006 hPa 0,0 l/m 6,6 m/s (2 Bft) W-SW45 250 0,00 min 13,6 klux -0,5 C -6,9 C
15.01.2004 12:30 3,0 C 3,7 C 77 % 1006 hPa 0,0 l/m 7,9 m/s (2 Bft) W-SW45 245 0,00 min 7,16 klux -0,6 C -8,8 C
15.01.2004 12:35 3,0 C 3,6 C 77 % 1006 hPa 0,0 l/m 6,3 m/s (2 Bft) W45 260 0,00 min 6,65 klux -0,6 C -6,9 C
15.01.2004 12:40 3,0 C 3,5 C 78 % 1006 hPa 0,0 l/m 5,0 m/s (1 Bft) W22.5 260 0,00 min 9,4 klux -0,5 C -4,8 C
15.01.2004 12:45 2,9 C 3,5 C 78 % 1006 hPa 0,0 l/m 6,2 m/s (2 Bft) W-SW22.5 255 0,00 min 5,45 klux -0,5 C -6,8 C
15.01.2004 12:50 3,0 C 3,5 C 78 % 1006 hPa 0,0 l/m 4,5 m/s (1 Bft) W-SW45 255 0,00 min 7,28 klux -0,5 C -4,0 C
15.01.2004 12:55 3,0 C 3,4 C 76 % 1006 hPa 0,0 l/m 10,6 m/s (2 Bft) W45 260 0,00 min 9,3 klux -0,8 C -11,2 C
15.01.2004 13:00 3,1 C 3,4 C 75 % 1006 hPa 0,0 l/m 5,4 m/s (1 Bft) W22.5 260 0,00 min 10,3 klux -0,9 C -5,4 C
15.01.2004 13:05 3,1 C 3,5 C 74 % 1006 hPa 0,0 l/m 7,3 m/s (2 Bft) W-SW45 255 0,00 min 6,95 klux -1,1 C -7,9 C
15.01.2004 13:10 3,1 C 3,4 C 74 % 1006 hPa 0,0 l/m 5,2 m/s (1 Bft) W-SW45 250 0,00 min 4,86 klux -1,1 C -5,0 C
15.01.2004 13:15 3,0 C 3,3 C 74 % 1006 hPa 0,0 l/m 6,0 m/s (2 Bft) W-SW67.5 245 0,00 min 7,49 klux -1,2 C -6,4 C
15.01.2004 13:20 3,1 C 3,3 C 72 % 1006 hPa 0,0 l/m 7,1 m/s (2 Bft) W-SW45 255 0,00 min 5,63 klux -1,4 C -7,7 C
15.01.2004 13:25 3,1 C 3,3 C 73 % 1006 hPa 0,0 l/m 6,9 m/s (2 Bft) W45 260 0,00 min 6,23 klux -1,3 C -7,5 C
15.01.2004 13:30 3,1 C 3,4 C 73 % 1006 hPa 0,0 l/m 6,3 m/s (2 Bft) W-SW22.5 255 0,00 min 8,54 klux -1,3 C -6,6 C
15.01.2004 13:35 3,2 C 3,4 C 72 % 1007 hPa 0,0 l/m 7,2 m/s (2 Bft) W45 260 0,00 min 11,9 klux -1,3 C -7,7 C
15.01.2004 13:40 3,2 C 3,5 C 71 % 1007 hPa 0,0 l/m 5,1 m/s (1 Bft) W-SW22.5 255 0,00 min 15,2 klux -1,5 C -4,8 C
15.01.2004 13:45 3,3 C 3,5 C 71 % 1007 hPa 0,0 l/m 5,8 m/s (2 Bft) W-SW22.5 245 0,00 min 14,4 klux -1,4 C -5,8 C
15.01.2004 13:50 3,4 C 3,5 C 70 % 1007 hPa 0,0 l/m 8,0 m/s (2 Bft) W45 260 0,00 min 13,2 klux -1,5 C -8,3 C
15.01.2004 13:55 3,4 C 3,6 C 70 % 1007 hPa 0,0 l/m 7,4 m/s (2 Bft) W-SW22.5 255 0,00 min 13,4 klux -1,5 C -7,7 C
15.01.2004 14:00 3,4 C 3,6 C 69 % 1007 hPa 0,0 l/m 7,1 m/s (2 Bft) W-SW22.5 240 0,00 min 12,1 klux -1,7 C -7,3 C
15.01.2004 14:05 3,4 C 3,6 C 68 % 1007 hPa 0,0 l/m 7,6 m/s (2 Bft) W-SW22.5 255 0,00 min 11,3 klux -1,9 C -7,8 C
15.01.2004 14:10 3,3 C 3,6 C 67 % 1007 hPa 0,0 l/m 7,2 m/s (2 Bft) W-SW45 255 0,00 min 10,0 klux -2,2 C -7,5 C
15.01.2004 14:15 3,3 C 3,6 C 67 % 1006 hPa 0,0 l/m 7,7 m/s (2 Bft) W-SW45 250 0,00 min 8,38 klux -2,2 C -8,1 C
15.01.2004 14:20 3,3 C 3,6 C 68 % 1007 hPa 0,0 l/m 7,9 m/s (2 Bft) W-SW22.5 250 0,00 min 8,58 klux -2,0 C -8,4 C
15.01.2004 14:25 3,3 C 3,6 C 68 % 1007 hPa 0,0 l/m 6,9 m/s (2 Bft) W67.5 260 0,00 min 10,0 klux -2,0 C -7,2 C
15.01.2004 14:30 3,3 C 3,6 C 68 % 1007 hPa 0,0 l/m 6,2 m/s (2 Bft) W-SW22.5 245 0,00 min 9,1 klux -2,0 C -6,3 C
15.01.2004 14:35 3,2 C 3,6 C 68 % 1007 hPa 0,0 l/m 5,4 m/s (1 Bft) W-SW22.5 240 0,00 min 8,00 klux -2,1 C -5,3 C
15.01.2004 14:40 3,2 C 3,5 C 69 % 1007 hPa 0,0 l/m 5,0 m/s (1 Bft) W-SW45 240 0,00 min 6,07 klux -1,9 C -4,6 C
15.01.2004 14:45 3,2 C 3,5 C 68 % 1007 hPa 0,0 l/m 6,2 m/s (2 Bft) W-SW45 255 0,00 min 6,68 klux -2,1 C -6,5 C
15.01.2004 14:50 3,2 C 3,5 C 68 % 1007 hPa 0,0 l/m 6,7 m/s (2 Bft) W-SW22.5 250 0,00 min 5,87 klux -2,1 C -7,0 C
15.01.2004 14:55 3,2 C 3,5 C 67 % 1007 hPa 0,0 l/m 6,9 m/s (2 Bft) W-SW22.5 240 0,00 min 4,85 klux -2,3 C -7,3 C
15.01.2004 15:00 3,2 C 3,5 C 68 % 1007 hPa 0,0 l/m 4,8 m/s (1 Bft) W-SW45 250 0,00 min 4,80 klux -2,1 C -4,3 C
15.01.2004 15:05 3,2 C 3,5 C 68 % 1007 hPa 0,0 l/m 5,0 m/s (1 Bft) W-SW22.5 250 0,00 min 4,93 klux -2,1 C -4,6 C
15.01.2004 15:10 3,3 C 3,5 C 69 % 1007 hPa 0,0 l/m 2,7 m/s (1 Bft) SW67.5 235 0,00 min 5,98 klux -1,8 C 0,3 C
15.01.2004 15:15 3,2 C 3,5 C 70 % 1007 hPa 0,0 l/m 5,2 m/s (1 Bft) W-SW45 245 0,00 min 5,90 klux -1,7 C -4,9 C
15.01.2004 15:20 3,2 C 3,5 C 70 % 1007 hPa 0,0 l/m 4,4 m/s (1 Bft) SW22.5 230 0,00 min 7,22 klux -1,7 C -3,5 C
15.01.2004 15:25 3,2 C 3,5 C 70 % 1007 hPa 0,0 l/m 4,4 m/s (1 Bft) SW45 235 0,00 min 5,77 klux -1,7 C -3,6 C
15.01.2004 15:30 3,2 C 3,5 C 70 % 1007 hPa 0,0 l/m 4,2 m/s (1 Bft) W-SW45 240 0,00 min 3,93 klux -1,7 C -3,2 C
15.01.2004 15:35 3,2 C 3,5 C 70 % 1007 hPa 0,0 l/m 3,6 m/s (1 Bft) W-SW45 240 0,00 min 4,22 klux -1,7 C -1,8 C
15.01.2004 15:40 3,2 C 3,5 C 70 % 1007 hPa 0,0 l/m 4,3 m/s (1 Bft) W-SW67.5 245 0,00 min 3,42 klux -1,7 C -3,3 C
15.01.2004 15:45 3,2 C 3,5 C 70 % 1007 hPa 0,0 l/m 3,9 m/s (1 Bft) W-SW45 240 0,00 min 3,34 klux -1,7 C -2,5 C
15.01.2004 15:50 3,1 C 3,5 C 70 % 1007 hPa 0,0 l/m 3,0 m/s (1 Bft) W-SW67.5 250 0,00 min 3,69 klux -1,8 C -0,7 C
15.01.2004 15:55 3,1 C 3,4 C 70 % 1007 hPa 0,0 l/m 4,7 m/s (1 Bft) W-SW22.5 240 0,00 min 3,14 klux -1,8 C -4,2 C
15.01.2004 16:00 3,1 C 3,4 C 70 % 1007 hPa 0,0 l/m 3,9 m/s (1 Bft) W-SW22.5 240 0,00 min 1,76 klux -1,8 C -2,6 C
15.01.2004 16:05 3,1 C 3,4 C 70 % 1007 hPa 0,0 l/m 4,0 m/s (1 Bft) W-SW22.5 240 0,00 min 1,62 klux -1,8 C -2,8 C
15.01.2004 16:10 3,1 C 3,4 C 70 % 1007 hPa 0,0 l/m 5,2 m/s (1 Bft) W-SW45 250 0,00 min 1,54 klux -1,8 C -5,0 C
15.01.2004 16:15 3,1 C 3,3 C 70 % 1007 hPa 0,0 l/m 3,6 m/s (1 Bft) W-SW45 240 0,00 min 1,55 klux -1,8 C -2,0 C
15.01.2004 16:20 3,0 C 3,3 C 70 % 1007 hPa 0,0 l/m 3,3 m/s (1 Bft) W-SW45 240 0,00 min 992 lux -1,9 C -1,3 C
15.01.2004 16:25 3,0 C 3,3 C 70 % 1008 hPa 0,0 l/m 2,9 m/s (1 Bft) W-SW45 240 0,00 min 826 lux -1,9 C -0,5 C
15.01.2004 16:30 3,0 C 3,3 C 71 % 1008 hPa 0,0 l/m 3,5 m/s (1 Bft) W-SW45 245 0,00 min 605 lux -1,7 C -1,9 C
15.01.2004 16:35 2,9 C 3,2 C 71 % 1008 hPa 0,0 l/m 4,1 m/s (1 Bft) SW22.5 235 0,00 min 605 lux -1,8 C -3,4 C
15.01.2004 16:40 2,9 C 3,2 C 71 % 1007 hPa 0,0 l/m 3,9 m/s (1 Bft) W-SW45 240 0,00 min 209 lux -1,8 C -3,0 C
15.01.2004 16:45 2,9 C 3,2 C 71 % 1007 hPa 0,0 l/m 4,5 m/s (1 Bft) SW45 230 0,00 min 192 lux -1,8 C -4,2 C
15.01.2004 16:50 2,8 C 3,2 C 72 % 1007 hPa 0,0 l/m 3,3 m/s (1 Bft) SW45 225 0,00 min 130 lux -1,7 C -1,6 C
15.01.2004 16:55 2,8 C 3,2 C 72 % 1007 hPa 0,0 l/m 3,5 m/s (1 Bft) W-SW22.5 245 0,00 min 72 lux -1,7 C -2,2 C
15.01.2004 17:00 2,8 C 3,2 C 72 % 1008 hPa 0,0 l/m 2,8 m/s (1 Bft) SW67.5 235 0,00 min 49 lux -1,7 C -0,3 C
15.01.2004 17:05 2,8 C 3,1 C 72 % 1008 hPa 0,0 l/m 3,9 m/s (1 Bft) SW45 225 0,00 min 33 lux -1,7 C -3,0 C
15.01.2004 17:10 2,8 C 3,1 C 72 % 1008 hPa 0,0 l/m 4,9 m/s (1 Bft) SW45 230 0,00 min 20 lux -1,7 C -5,0 C
15.01.2004 17:15 2,8 C 3,1 C 72 % 1008 hPa 0,0 l/m 3,2 m/s (1 Bft) SW22.5 225 0,00 min 16 lux -1,7 C -1,5 C
15.01.2004 17:20 2,7 C 3,1 C 73 % 1008 hPa 0,0 l/m 3,7 m/s (1 Bft) SW67.5 215 0,00 min 11 lux -1,6 C -2,7 C
15.01.2004 17:25 2,6 C 3,0 C 74 % 1008 hPa 0,0 l/m 3,7 m/s (1 Bft) SW45 230 0,00 min 8 lux -1,6 C -2,8 C
15.01.2004 17:30 2,6 C 3,0 C 74 % 1007 hPa 0,0 l/m 3,4 m/s (1 Bft) W-SW45 240 0,00 min 2 lux -1,6 C -2,1 C
15.01.2004 17:35 2,6 C 3,0 C 74 % 1008 hPa 0,0 l/m 4,4 m/s (1 Bft) W-SW22.5 245 0,00 min 0 lux -1,6 C -4,3 C
15.01.2004 17:40 2,6 C 2,9 C 75 % 1008 hPa 0,0 l/m 3,0 m/s (1 Bft) W-SW45 245 0,00 min 0 lux -1,4 C -1,2 C
15.01.2004 17:45 2,6 C 2,9 C 75 % 1008 hPa 0,0 l/m 3,0 m/s (1 Bft) W-SW45 245 0,00 min 0 lux -1,4 C -1,2 C
15.01.2004 17:50 2,6 C 2,9 C 75 % 1008 hPa 0,0 l/m 3,3 m/s (1 Bft) W-SW22.5 250 0,00 min 0 lux -1,4 C -1,9 C
15.01.2004 17:55 2,7 C 2,9 C 75 % 1008 hPa 0,0 l/m 4,6 m/s (1 Bft) W-SW22.5 245 0,00 min 0 lux -1,3 C -4,5 C
15.01.2004 18:00 2,6 C 2,9 C 75 % 1008 hPa 0,0 l/m 2,9 m/s (1 Bft) SW22.5 235 0,00 min 0 lux -1,4 C -1,0 C
15.01.2004 18:05 2,6 C 2,9 C 75 % 1008 hPa 0,0 l/m 0,9 m/s (0 Bft) SW22.5 225 0,00 min 0 lux -1,4 C 2,6 C
15.01.2004 18:10 2,6 C 2,8 C 76 % 1008 hPa 0,0 l/m 1,1 m/s (0 Bft) W-SW45 245 0,00 min 0 lux -1,2 C 2,6 C
15.01.2004 18:15 2,6 C 2,8 C 76 % 1008 hPa 0,0 l/m 0,2 m/s (0 Bft) SW22.5 235 0,00 min 0 lux -1,2 C 2,6 C
15.01.2004 18:20 2,6 C 2,8 C 76 % 1008 hPa 0,0 l/m 1,4 m/s (1 Bft) SW22.5 225 0,00 min 0 lux -1,2 C 2,6 C
15.01.2004 18:25 2,6 C 2,8 C 76 % 1008 hPa 0,0 l/m 3,4 m/s (1 Bft) W-SW45 245 0,00 min 0 lux -1,2 C -2,3 C
15.01.2004 18:30 2,6 C 2,8 C 76 % 1008 hPa 0,0 l/m 0,5 m/s (0 Bft) SW22.5 235 0,00 min 0 lux -1,2 C 2,6 C
15.01.2004 18:35 2,6 C 2,8 C 76 % 1008 hPa 0,0 l/m 0,5 m/s (0 Bft) SW22.5 235 0,00 min 0 lux -1,2 C 2,6 C
15.01.2004 18:40 2,6 C 2,8 C 76 % 1008 hPa 0,0 l/m 0,3 m/s (0 Bft) W-SW22.5 240 0,00 min 0 lux -1,2 C 2,6 C
15.01.2004 18:45 2,6 C 2,8 C 76 % 1008 hPa 0,0 l/m 1,8 m/s (1 Bft) W-SW22.5 240 0,00 min 0 lux -1,2 C 2,6 C
15.01.2004 18:50 2,7 C 2,8 C 75 % 1008 hPa 0,0 l/m 3,3 m/s (1 Bft) SW22.5 230 0,00 min 0 lux -1,3 C -1,8 C
15.01.2004 18:55 2,7 C 2,8 C 75 % 1008 hPa 0,0 l/m 3,8 m/s (1 Bft) SW45 235 0,00 min 0 lux -1,3 C -3,0 C
15.01.2004 19:00 2,8 C 2,8 C 74 % 1008 hPa 0,0 l/m 3,8 m/s (1 Bft) W-SW22.5 245 0,00 min 0 lux -1,4 C -2,8 C
15.01.2004 19:05 2,7 C 2,9 C 74 % 1008 hPa 0,0 l/m 3,1 m/s (1 Bft) W-SW45 240 0,00 min 0 lux -1,5 C -1,4 C
15.01.2004 19:10 2,8 C 2,9 C 74 % 1008 hPa 0,0 l/m 3,3 m/s (1 Bft) SW45 235 0,00 min 0 lux -1,4 C -1,7 C
15.01.2004 19:15 2,7 C 2,9 C 74 % 1008 hPa 0,0 l/m 2,7 m/s (1 Bft) SW67.5 225 0,00 min 0 lux -1,5 C -0,3 C
15.01.2004 19:20 2,7 C 2,9 C 74 % 1008 hPa 0,0 l/m 2,4 m/s (1 Bft) SW22.5 235 0,00 min 0 lux -1,5 C 0,7 C
15.01.2004 19:25 2,7 C 3,0 C 74 % 1008 hPa 0,0 l/m 5,2 m/s (1 Bft) SW45 225 0,00 min 0 lux -1,5 C -5,6 C
15.01.2004 19:30 2,8 C 3,0 C 73 % 1007 hPa 0,0 l/m 4,1 m/s (1 Bft) SW45 230 0,00 min 0 lux -1,5 C -3,5 C
15.01.2004 19:35 2,8 C 2,9 C 74 % 1007 hPa 0,0 l/m 5,4 m/s (1 Bft) SW45 220 0,00 min 0 lux -1,4 C -5,7 C
15.01.2004 19:40 2,7 C 3,0 C 74 % 1007 hPa 0,0 l/m 5,6 m/s (1 Bft) SW45 230 0,00 min 0 lux -1,5 C -6,3 C
15.01.2004 19:45 2,7 C 3,0 C 74 % 1007 hPa 0,0 l/m 6,0 m/s (2 Bft) SW45 230 0,00 min 0 lux -1,5 C -6,8 C
15.01.2004 19:50 2,7 C 3,0 C 74 % 1007 hPa 0,0 l/m 6,6 m/s (2 Bft) SW67.5 230 0,00 min 0 lux -1,5 C -7,6 C
15.01.2004 19:55 2,7 C 3,0 C 74 % 1007 hPa 0,0 l/m 5,0 m/s (1 Bft) SW67.5 215 0,00 min 0 lux -1,5 C -5,2 C
15.01.2004 20:00 2,7 C 3,0 C 74 % 1007 hPa 0,0 l/m 5,3 m/s (1 Bft) W-SW45 240 0,00 min 0 lux -1,5 C -5,7 C
15.01.2004 20:05 2,7 C 3,0 C 74 % 1007 hPa 0,0 l/m 4,6 m/s (1 Bft) SW22.5 225 0,00 min 0 lux -1,5 C -4,6 C
15.01.2004 20:10 2,7 C 3,0 C 74 % 1007 hPa 0,0 l/m 3,8 m/s (1 Bft) W-SW45 240 0,00 min 0 lux -1,5 C -2,8 C
15.01.2004 20:15 2,6 C 2,9 C 74 % 1007 hPa 0,0 l/m 5,1 m/s (1 Bft) SW45 235 0,00 min 0 lux -1,6 C -5,6 C
15.01.2004 20:20 2,7 C 2,9 C 74 % 1007 hPa 0,0 l/m 4,6 m/s (1 Bft) W-SW67.5 240 0,00 min 0 lux -1,5 C -4,5 C
15.01.2004 20:25 2,6 C 2,9 C 74 % 1007 hPa 0,0 l/m 4,3 m/s (1 Bft) SW45 230 0,00 min 0 lux -1,6 C -4,2 C
15.01.2004 20:30 2,6 C 2,9 C 74 % 1007 hPa 0,0 l/m 6,5 m/s (2 Bft) SW45 230 0,00 min 0 lux -1,6 C -7,7 C
15.01.2004 20:35 2,6 C 2,9 C 75 % 1007 hPa 0,0 l/m 5,4 m/s (1 Bft) SW67.5 220 0,00 min 0 lux -1,4 C -6,0 C
15.01.2004 20:40 2,6 C 2,9 C 75 % 1007 hPa 0,0 l/m 4,5 m/s (1 Bft) SW45 230 0,00 min 0 lux -1,4 C -4,5 C
15.01.2004 20:45 2,6 C 2,9 C 75 % 1007 hPa 0,0 l/m 5,3 m/s (1 Bft) SW45 220 0,00 min 0 lux -1,4 C -5,9 C
15.01.2004 20:50 2,6 C 2,9 C 75 % 1007 hPa 0,0 l/m 3,6 m/s (1 Bft) SW45 220 0,00 min 0 lux -1,4 C -2,6 C
15.01.2004 20:55 2,7 C 2,9 C 74 % 1007 hPa 0,0 l/m 5,4 m/s (1 Bft) SW45 230 0,00 min 0 lux -1,5 C -6,0 C
15.01.2004 21:00 2,6 C 2,9 C 75 % 1007 hPa 0,0 l/m 4,1 m/s (1 Bft) SW45 225 0,00 min 0 lux -1,4 C -3,7 C
15.01.2004 21:05 2,6 C 2,9 C 75 % 1007 hPa 0,0 l/m 3,7 m/s (1 Bft) SW45 230 0,00 min 0 lux -1,4 C -2,8 C
15.01.2004 21:10 2,6 C 2,9 C 75 % 1007 hPa 0,0 l/m 4,3 m/s (1 Bft) SW22.5 225 0,00 min 0 lux -1,4 C -4,2 C
15.01.2004 21:15 2,6 C 2,9 C 75 % 1007 hPa 0,0 l/m 4,8 m/s (1 Bft) SW67.5 220 0,00 min 0 lux -1,4 C -5,0 C
15.01.2004 21:20 2,5 C 2,8 C 75 % 1007 hPa 0,0 l/m 4,5 m/s (1 Bft) SW22.5 220 0,00 min 0 lux -1,5 C -4,6 C
15.01.2004 21:25 2,5 C 2,7 C 75 % 1007 hPa 0,0 l/m 3,9 m/s (1 Bft) SW22.5 225 0,00 min 0 lux -1,5 C -3,4 C
15.01.2004 21:30 2,3 C 2,6 C 75 % 1007 hPa 0,0 l/m 4,0 m/s (1 Bft) SW22.5 225 0,00 min 0 lux -1,7 C -3,8 C
15.01.2004 21:35 2,2 C 2,6 C 76 % 1007 hPa 0,0 l/m 4,1 m/s (1 Bft) SW45 215 0,00 min 0 lux -1,6 C -4,1 C
15.01.2004 21:40 2,2 C 2,5 C 76 % 1007 hPa 0,0 l/m 4,5 m/s (1 Bft) SW45 220 0,00 min 0 lux -1,6 C -5,0 C
15.01.2004 21:45 2,0 C 2,4 C 76 % 1007 hPa 0,0 l/m 2,9 m/s (1 Bft) SW45 230 0,00 min 0 lux -1,8 C -1,6 C
15.01.2004 21:50 1,8 C 2,3 C 78 % 1007 hPa 0,0 l/m 3,3 m/s (1 Bft) SW45 225 0,00 min 0 lux -1,6 C -2,8 C
15.01.2004 21:55 1,7 C 2,3 C 78 % 1007 hPa 0,0 l/m 3,8 m/s (1 Bft) SW45 220 0,00 min 0 lux -1,7 C -4,2 C
15.01.2004 22:00 1,8 C 2,2 C 79 % 1007 hPa 0,0 l/m 3,8 m/s (1 Bft) SW67.5 215 0,00 min 0 lux -1,4 C -3,9 C
15.01.2004 22:05 1,8 C 2,2 C 79 % 1007 hPa 0,0 l/m 6,1 m/s (2 Bft) SW67.5 215 0,00 min 0 lux -1,4 C -8,1 C
15.01.2004 22:10 2,0 C 2,2 C 78 % 1007 hPa 0,0 l/m 4,9 m/s (1 Bft) SW22.5 220 0,00 min 0 lux -1,4 C -6,0 C
15.01.2004 22:15 2,0 C 2,2 C 78 % 1007 hPa 0,0 l/m 4,9 m/s (1 Bft) SW22.5 230 0,00 min 0 lux -1,4 C -5,9 C
15.01.2004 22:20 1,9 C 2,2 C 79 % 1006 hPa 0,0 l/m 3,5 m/s (1 Bft) S-SW67.5 200 0,00 min 0 lux -1,3 C -3,3 C
15.01.2004 22:25 1,8 C 2,1 C 79 % 1006 hPa 0,0 l/m 3,7 m/s (1 Bft) S-SW45 210 0,00 min 0 lux -1,4 C -3,8 C
15.01.2004 22:30 1,8 C 2,1 C 79 % 1006 hPa 0,0 l/m 3,0 m/s (1 Bft) S-SW45 200 0,00 min 0 lux -1,4 C -2,1 C
15.01.2004 22:35 2,0 C 2,1 C 78 % 1006 hPa 0,0 l/m 4,8 m/s (1 Bft) S-SW67.5 205 0,00 min 0 lux -1,4 C -5,8 C
15.01.2004 22:40 1,9 C 2,1 C 79 % 1006 hPa 0,0 l/m 3,1 m/s (1 Bft) S-SW67.5 210 0,00 min 0 lux -1,3 C -2,2 C
15.01.2004 22:45 2,0 C 2,1 C 78 % 1006 hPa 0,0 l/m 3,5 m/s (1 Bft) S67.5 190 0,00 min 0 lux -1,4 C -3,1 C
15.01.2004 22:50 1,9 C 2,2 C 79 % 1006 hPa 0,0 l/m 3,9 m/s (1 Bft) S45 170 0,00 min 0 lux -1,3 C -4,2 C
15.01.2004 22:55 2,0 C 2,2 C 78 % 1006 hPa 0,0 l/m 3,8 m/s (1 Bft) S-SW45 195 0,00 min 0 lux -1,4 C -3,8 C
15.01.2004 23:00 2,1 C 2,2 C 78 % 1006 hPa 0,0 l/m 4,6 m/s (1 Bft) S-SW67.5 200 0,00 min 0 lux -1,3 C -5,3 C
15.01.2004 23:05 2,4 C 2,3 C 77 % 1006 hPa 0,0 l/m 3,3 m/s (1 Bft) S-SW67.5 210 0,00 min 0 lux -1,2 C -2,2 C
15.01.2004 23:10 2,2 C 2,3 C 77 % 1006 hPa 0,0 l/m 3,4 m/s (1 Bft) S-SW45 210 0,00 min 0 lux -1,4 C -2,7 C
15.01.2004 23:15 2,2 C 2,3 C 77 % 1006 hPa 0,0 l/m 5,7 m/s (1 Bft) SW22.5 225 0,00 min 0 lux -1,4 C -7,0 C
15.01.2004 23:20 2,4 C 2,4 C 76 % 1006 hPa 0,0 l/m 5,4 m/s (1 Bft) SW45 225 0,00 min 0 lux -1,4 C -6,4 C
15.01.2004 23:25 2,4 C 2,4 C 76 % 1005 hPa 0,0 l/m 4,5 m/s (1 Bft) S-SW67.5 200 0,00 min 0 lux -1,4 C -4,7 C
15.01.2004 23:30 2,4 C 2,4 C 76 % 1006 hPa 0,0 l/m 3,6 m/s (1 Bft) S-SW67.5 205 0,00 min 0 lux -1,4 C -2,8 C
15.01.2004 23:35 2,4 C 2,4 C 76 % 1005 hPa 0,0 l/m 4,9 m/s (1 Bft) S-SW67.5 205 0,00 min 0 lux -1,4 C -5,4 C
15.01.2004 23:40 2,4 C 2,5 C 77 % 1005 hPa 0,0 l/m 5,8 m/s (2 Bft) SW67.5 220 0,00 min 0 lux -1,2 C -6,9 C
15.01.2004 23:45 2,4 C 2,4 C 77 % 1005 hPa 0,0 l/m 4,6 m/s (1 Bft) SW67.5 215 0,00 min 0 lux -1,2 C -5,0 C
15.01.2004 23:50 2,4 C 2,4 C 78 % 1005 hPa 0,0 l/m 4,2 m/s (1 Bft) S-SW67.5 195 0,00 min 0 lux -1,0 C -4,1 C
15.01.2004 23:55 2,4 C 2,3 C 78 % 1005 hPa 0,0 l/m 4,1 m/s (1 Bft) SW67.5 215 0,00 min 0 lux -1,0 C -4,0 C
_ Min-Zeit 06:35 06:40 14:10 00:00 - 18:15 - - - - 14:55 06:05
Minimum _ 0,5 C 0,9 C 67 % 993 hPa - 0,2 m/s (0 Bft) - - - - -2,3 C -13,6 C
_ Max-Zeit 12:20 12:15 06:30 16:25 01:10 04:35 - - 11:45 12:10 02:45 01:10
Maximum _ 3,4 C 3,9 C 88 % 1008 hPa 0,4 l/m 10,7 m/s
W-SW (5 Bft)
- - 5,00 min 25,6 klux 0,8 C 2,8 C
Durchschnitt _ 2,4 C 2,7 C 79 % 1003 hPa #3,2 l/m 5,1 m/s (3 Bft) W-SW - #10 min. 2,68 klux -0,9 C -5,2 C